NOAA 19 - Orbit

View from above orbital plane
View from above orbital plane
View from above satellite
View from above satellite

Ground track
Ground track

The orbit data is extracted from the following two-line orbital elements,

1 33591U 09005A   13180.48865834  .00000190  00000-0  10442-3 0  8379
2 33591 098.9002 122.4467 0014665 035.6693 324.5956 14.11518164226232
Epoch (UTC): 29 June 2013 11:43:40
Eccentricity: 0.0014665
inclination: 98.9002°
perigee height: 843 km
apogee height: 865 km
right ascension of ascending node: 122.4467°
argument of perigee: 35.6693°
revolutions per day: 14.11518164
mean anomaly at epoch: 324.5956°
orbit number at epoch: 22623

The dashed part of the orbit path shows where the satellite is in the earth's shadow,  

Developed and maintained by Chris Peat, Heavens-Above GmbH. Please read the updated FAQ before sending e-mail. Imprint. DLR